Tracking 29892 objects as of 21-Nov-2024
HD Live streaming from Space Station
objects crossing your sky now

STARLINK-5759

Track STARLINK-5759 now!
10-day predictions
STARLINK-5759 is classified as:


NORAD ID: 55592
Int'l Code: 2023-020Z
Perigee: 565.3 km
Apogee: 566.9 km
Inclination: 43.0 °
Period: 95.8 minutes
Semi major axis: 6937 km
RCS: Unknown
Launch date: February 12, 2023
Source: United States (US)
Launch site: AIR FORCE EASTERN TEST RANGE (AFETR)
Your satellite tracking list
Your tracking list is empty




NASA's NSSDC Master Catalog

Two Line Element Set (TLE):
1 55592U 23020Z   24325.77168556 -.00001464  00000-0 -93264-4 0  9999
2 55592  43.0045  59.4412 0001154 231.4348 128.6391 15.02566218 97636
Source of the keplerian elements: AFSPC